CYVQCYEV [ZE999]

Details From CYVQ - NORMAN WELLS
To CYEV - INUVIK MIKE ZUBKO
Flight Number ZE999
Tags generated
Created
Modified
Stats Distance 243 nm / 450 km
Max Altitude 18,000 ft / 5,486 m
Waypoints 4
Social Downloads 1
Likes 0
Share VATSIM

Download

Looking for another format? Having issues loading an existing format? Contact us
Advertisement - Login to hide

Notes

Basic altitude profile: - Ascent Rate: 2000ft/min - Ascent Speed: 250kts - Cruise Altitude: 35000ft - Cruise Speed: 500kts - Descent Rate: 2000ft/min - Descent Speed: 250kts

Route

CYVQ YGH J516 YEV CYEV

ID Type Via Altitude Latitude Longitude Leg Dist Tot Dist Heading (true) Name
O CYVQ APT - 0 ft / 0 m 65.28162˚ -126.79822˚ - 0 nm - NORMAN WELLS
YGH VOR - 16,400 ft / 4,999 m 66.23628˚ -128.62306˚ 72 nm 72 nm 323° / 321° FORT GOOD HOPE VOR-DME
YEV VOR J516 (AWY-HI) 18,000 ft / 5,486 m 68.30806˚ -133.54825˚ 168 nm 241 nm 320° / 315° INUVIK VOR-DME
O CYEV APT - 0 ft / 0 m 68.30379˚ -133.48317˚ 1 nm 243 nm 100° / 100° INUVIK MIKE ZUBKO

Altitude Profile

Advertisement - Login to hide

Weather


0- 5 10 15 20 25 30 35+ Temperature / ° C

Clouds and Precipitation
Forecast for 2018-05-24 00:00 UTC. Updated 4 hours ago

Ground ~20,000 ft ~40,000 ft Winds

CYVQ

Details ICAO CYVQ (YVQ)
Name NORMAN WELLS
Region Canada
Timezone America/Yellowknife (UTC-6.0)
Stats Elevation 238 ft / 73 m (AMSL)
Location 65.281616° -126.798222°
Runways 1
Magnetic Variation 20.837° E

METAR

CYVQ 240300Z 28008KT 30SM FEW055CB FEW100 BKN120 BKN250 17/05 A2976 RMK CB1AC1AC3CI1 CI TR CB N SLP082 DENSITY ALT 800FT

Decode

TAF

TAF CYVQ 232338Z 2400/2412 25012KT P6SM SCT050 SCT130 TEMPO 2400/2404 BKN050 PROB30 2400/2402 VRB15G25KT 5SM -TSRA BR BKN040CB FM240700 VRB03KT P6SM BKN200 RMK NXT FCST BY 240600Z

Decode

Departure Runways

ID Width Length Bearing (true) Bearing (mag) Surface Threshold Offset Overrun Length
09 150 ft / 46 m 5,977 ft / 1,822 m 118.74° 97.90° Asphalt 0 ft / 0 m 0 ft / 0 m
27 150 ft / 46 m 5,977 ft / 1,822 m 298.78° 277.94° Asphalt 0 ft / 0 m 0 ft / 0 m

CYEV

Details ICAO CYEV (YEV)
Name INUVIK MIKE ZUBKO
Region Canada
Timezone America/Inuvik (UTC-6.0)
Stats Elevation 224 ft / 68 m (AMSL)
Location 68.303792° -133.483167°
Runways 1
Magnetic Variation 21.354° E

METAR

CYEV 240300Z 04005KT 15SM OVC016 00/M04 A2991 RMK SC8 SLP135

Decode

TAF

TAF CYEV 240038Z 2401/2413 03008KT P6SM OVC015 TEMPO 2401/2413 5SM -SN OVC008 PROB40 2403/2413 2SM -FZDZ BR OVC005 RMK NXT FCST BY 240700Z

Decode

Destination Runways

ID Width Length Bearing (true) Bearing (mag) Surface Threshold Offset Overrun Length
06 150 ft / 46 m 5,982 ft / 1,823 m 85.80° 64.45° Asphalt 0 ft / 0 m 0 ft / 0 m
24 150 ft / 46 m 5,982 ft / 1,823 m 265.84° 244.49° Asphalt 0 ft / 0 m 0 ft / 0 m

Popular Alternatives